Time,TemperatureF,DewpointF,PressureIn,WindDirection,WindDirectionDegrees,WindSpeedMPH,WindSpeedGustMPH,Humidity,HourlyPrecipIn,Conditions,Clouds,dailyrainin,SoftwareType,DateUTC
2018-01-21 00:00:00,43.0,37.3,30.15,WSW,248,2.0,11.0,80,0.00,,,0.00,Wunderground v.1.15,2018-01-21 05:00:00,
2018-01-21 00:05:00,43.2,37.4,30.15,WSW,246,4.0,4.0,80,0.00,,,0.00,Wunderground v.1.15,2018-01-21 05:05:00,
2018-01-21 00:11:00,43.3,37.5,30.15,West,278,1.0,4.0,80,0.00,,,0.00,Wunderground v.1.15,2018-01-21 05:11:00,
2018-01-21 00:16:00,43.3,37.5,30.15,SW,231,2.0,4.0,80,0.00,,,0.00,Wunderground v.1.15,2018-01-21 05:16:00,
2018-01-21 00:22:00,43.5,38.1,30.16,SW,236,7.0,7.0,81,0.00,,,0.00,Wunderground v.1.15,2018-01-21 05:22:00,
2018-01-21 00:28:00,43.2,37.4,30.16,SW,227,2.0,7.0,80,0.00,,,0.00,Wunderground v.1.15,2018-01-21 05:28:00,
2018-01-21 00:34:00,43.3,38.2,30.16,West,277,3.0,3.0,82,0.00,,,0.00,Wunderground v.1.15,2018-01-21 05:34:00,
2018-01-21 00:40:00,43.4,38.3,30.16,WNW,293,2.0,3.0,82,0.00,,,0.00,Wunderground v.1.15,2018-01-21 05:40:00,
2018-01-21 00:46:00,43.2,38.1,30.16,West,262,2.0,3.0,82,0.00,,,0.00,Wunderground v.1.15,2018-01-21 05:46:00,
2018-01-21 00:52:00,43.2,38.1,30.16,West,264,2.0,3.0,82,0.00,,,0.00,Wunderground v.1.15,2018-01-21 05:52:00,
2018-01-21 00:58:00,43.3,38.2,30.16,WSW,258,2.0,2.0,82,0.00,,,0.00,Wunderground v.1.15,2018-01-21 05:58:00,
2018-01-21 01:03:00,43.1,38.0,30.16,West,268,0.0,2.0,82,0.00,,,0.00,Wunderground v.1.15,2018-01-21 06:03:00,
2018-01-21 01:09:00,42.8,37.7,30.16,WSW,257,0.0,2.0,82,0.00,,,0.00,Wunderground v.1.15,2018-01-21 06:09:00,
2018-01-21 01:15:00,42.8,38.0,30.15,SW,234,2.0,3.0,83,0.00,,,0.00,Wunderground v.1.15,2018-01-21 06:15:00,
2018-01-21 01:21:00,43.0,38.2,30.15,SW,229,1.0,2.0,83,0.00,,,0.00,Wunderground v.1.15,2018-01-21 06:21:00,
2018-01-21 01:27:00,43.1,38.3,30.15,SW,229,2.0,2.0,83,0.00,,,0.00,Wunderground v.1.15,2018-01-21 06:27:00,
2018-01-21 01:33:00,43.4,38.6,30.15,WSW,253,3.0,6.0,83,0.00,,,0.00,Wunderground v.1.15,2018-01-21 06:33:00,
2018-01-21 01:39:00,43.4,38.6,30.15,WSW,244,1.0,6.0,83,0.00,,,0.00,Wunderground v.1.15,2018-01-21 06:39:00,
2018-01-21 01:44:00,43.8,39.0,30.15,SSE,151,1.0,3.0,83,0.00,,,0.00,Wunderground v.1.15,2018-01-21 06:44:00,
2018-01-21 01:50:00,43.6,38.8,30.15,SW,217,3.0,3.0,83,0.00,,,0.00,Wunderground v.1.15,2018-01-21 06:50:00,
2018-01-21 01:56:00,43.5,38.7,30.15,SW,236,3.0,5.0,83,0.00,,,0.00,Wunderground v.1.15,2018-01-21 06:56:00,
2018-01-21 02:07:00,43.3,39.1,30.15,WSW,249,0.0,7.0,85,0.00,,,0.00,Wunderground v.1.15,2018-01-21 07:07:00,
2018-01-21 02:12:00,43.3,39.1,30.16,WSW,240,1.0,3.0,85,0.00,,,0.00,Wunderground v.1.15,2018-01-21 07:12:00,
2018-01-21 02:22:00,42.6,39.3,30.15,SW,233,0.0,2.0,88,0.00,,,0.00,Wunderground v.1.15,2018-01-21 07:22:00,
2018-01-21 02:23:00,42.6,39.6,30.16,SW,233,2.0,2.0,89,0.00,,,0.00,Wunderground v.1.15,2018-01-21 07:23:00,
2018-01-21 02:28:00,42.4,39.7,30.15,SSE,153,1.0,6.0,90,0.00,,,0.00,Wunderground v.1.15,2018-01-21 07:28:00,
2018-01-21 02:33:00,42.2,39.8,30.15,WNW,288,0.0,2.0,91,0.00,,,0.00,Wunderground v.1.15,2018-01-21 07:33:00,
2018-01-21 02:38:00,42.2,39.8,30.16,WSW,253,1.0,6.0,91,0.00,,,0.00,Wunderground v.1.15,2018-01-21 07:38:00,
2018-01-21 02:43:00,42.1,39.9,30.16,West,261,0.0,2.0,92,0.00,,,0.00,Wunderground v.1.15,2018-01-21 07:43:00,
2018-01-21 02:48:00,42.2,40.0,30.16,WSW,250,0.0,4.0,92,0.00,,,0.00,Wunderground v.1.15,2018-01-21 07:48:00,
2018-01-21 02:53:00,42.2,40.3,30.16,WSW,240,2.0,7.0,93,0.00,,,0.00,Wunderground v.1.15,2018-01-21 07:53:00,
2018-01-21 02:58:00,42.4,40.5,30.16,WSW,242,0.0,8.0,93,0.00,,,0.00,Wunderground v.1.15,2018-01-21 07:58:00,
2018-01-21 03:03:00,42.4,40.8,30.16,SW,219,1.0,11.0,94,0.00,,,0.00,Wunderground v.1.15,2018-01-21 08:03:00,
2018-01-21 03:13:00,42.3,40.7,30.16,SW,224,1.0,4.0,94,0.00,,,0.00,Wunderground v.1.15,2018-01-21 08:13:00,
2018-01-21 03:23:00,42.3,41.0,30.16,SSW,202,0.0,5.0,95,0.00,,,0.00,Wunderground v.1.15,2018-01-21 08:23:00,
2018-01-21 03:33:00,42.5,41.2,30.16,WSW,246,6.0,6.0,95,0.00,,,0.00,Wunderground v.1.15,2018-01-21 08:33:00,
2018-01-21 03:38:00,42.5,41.2,30.16,SSW,200,4.0,7.0,95,0.00,,,0.00,Wunderground v.1.15,2018-01-21 08:38:00,
2018-01-21 03:48:00,42.6,41.5,30.16,SW,220,1.0,6.0,96,0.00,,,0.00,Wunderground v.1.15,2018-01-21 08:48:00,
2018-01-21 03:53:00,42.6,41.5,30.16,SSW,194,6.0,6.0,96,0.00,,,0.00,Wunderground v.1.15,2018-01-21 08:53:00,
2018-01-21 03:58:00,42.6,41.5,30.16,WSW,255,7.0,8.0,96,0.00,,,0.00,Wunderground v.1.15,2018-01-21 08:58:00,
2018-01-21 04:03:00,42.4,41.3,30.16,SW,231,4.0,6.0,96,0.00,,,0.01,Wunderground v.1.15,2018-01-21 09:03:00,
2018-01-21 04:08:00,42.7,41.6,30.16,WNW,286,1.0,6.0,96,0.00,,,0.01,Wunderground v.1.15,2018-01-21 09:08:00,
2018-01-21 04:14:00,42.8,42.0,30.16,South,181,3.0,8.0,97,0.00,,,0.01,Wunderground v.1.15,2018-01-21 09:14:00,
2018-01-21 04:19:00,42.9,42.1,30.15,WNW,291,2.0,9.0,97,0.00,,,0.01,Wunderground v.1.15,2018-01-21 09:19:00,
2018-01-21 04:23:00,43.1,42.3,30.16,WSW,251,0.0,5.0,97,0.00,,,0.01,Wunderground v.1.15,2018-01-21 09:23:00,
2018-01-21 04:28:00,42.9,42.1,30.16,SW,235,1.0,5.0,97,0.00,,,0.01,Wunderground v.1.15,2018-01-21 09:28:00,
2018-01-21 04:33:00,43.0,42.2,30.15,SSE,155,2.0,7.0,97,0.00,,,0.01,Wunderground v.1.15,2018-01-21 09:33:00,
2018-01-21 04:39:00,43.4,42.6,30.16,SSW,209,2.0,7.0,97,0.00,,,0.01,Wunderground v.1.15,2018-01-21 09:39:00,
2018-01-21 04:44:00,43.7,42.9,30.15,SSW,213,3.0,15.0,97,0.00,,,0.01,Wunderground v.1.15,2018-01-21 09:44:00,
2018-01-21 04:49:00,43.7,42.9,30.15,WSW,253,0.0,15.0,97,0.00,,,0.01,Wunderground v.1.15,2018-01-21 09:49:00,
2018-01-21 04:54:00,43.6,42.8,30.15,West,279,0.0,7.0,97,0.00,,,0.01,Wunderground v.1.15,2018-01-21 09:54:00,
2018-01-21 04:59:00,43.6,42.8,30.15,NW,325,1.0,11.0,97,0.00,,,0.01,Wunderground v.1.15,2018-01-21 09:59:00,
2018-01-21 05:04:00,43.6,42.8,30.15,SSW,193,0.0,5.0,97,0.00,,,0.01,Wunderground v.1.15,2018-01-21 10:04:00,
2018-01-21 05:09:00,43.9,43.1,30.15,West,259,5.0,11.0,97,0.00,,,0.01,Wunderground v.1.15,2018-01-21 10:09:00,
2018-01-21 05:10:00,43.9,43.1,30.15,WSW,250,1.0,11.0,97,0.00,,,0.01,Wunderground v.1.15,2018-01-21 10:10:00,
2018-01-21 05:15:00,44.0,43.2,30.15,SW,235,0.0,8.0,97,0.00,,,0.01,Wunderground v.1.15,2018-01-21 10:15:00,
2018-01-21 05:20:00,43.9,43.1,30.15,South,180,0.0,8.0,97,0.00,,,0.01,Wunderground v.1.15,2018-01-21 10:20:00,
2018-01-21 05:25:00,43.8,43.0,30.15,SSW,194,0.0,2.0,97,0.00,,,0.01,Wunderground v.1.15,2018-01-21 10:25:00,
2018-01-21 05:30:00,44.0,43.2,30.15,WSW,239,2.0,4.0,97,0.00,,,0.01,Wunderground v.1.15,2018-01-21 10:30:00,
2018-01-21 05:35:00,44.1,43.3,30.16,SSW,194,0.0,5.0,97,0.00,,,0.01,Wunderground v.1.15,2018-01-21 10:35:00,
2018-01-21 05:40:00,44.2,43.4,30.16,WSW,240,5.0,6.0,97,0.00,,,0.01,Wunderground v.1.15,2018-01-21 10:40:00,
2018-01-21 05:45:00,44.4,43.6,30.15,SW,236,3.0,5.0,97,0.00,,,0.01,Wunderground v.1.15,2018-01-21 10:45:00,
2018-01-21 05:50:00,44.5,43.7,30.15,SSW,199,1.0,6.0,97,0.00,,,0.01,Wunderground v.1.15,2018-01-21 10:50:00,
2018-01-21 05:55:00,44.6,43.8,30.15,South,188,1.0,7.0,97,0.00,,,0.01,Wunderground v.1.15,2018-01-21 10:55:00,
2018-01-21 06:00:00,44.6,43.8,30.15,SW,228,1.0,7.0,97,0.00,,,0.01,Wunderground v.1.15,2018-01-21 11:00:00,
2018-01-21 06:05:00,44.6,43.8,30.16,SSE,160,1.0,9.0,97,0.00,,,0.01,Wunderground v.1.15,2018-01-21 11:05:00,
2018-01-21 06:10:00,44.7,43.9,30.16,SSW,211,0.0,11.0,97,0.00,,,0.01,Wunderground v.1.15,2018-01-21 11:10:00,
2018-01-21 06:15:00,44.6,43.8,30.15,SSW,203,6.0,8.0,97,0.00,,,0.01,Wunderground v.1.15,2018-01-21 11:15:00,
2018-01-21 06:20:00,44.7,43.9,30.16,WSW,244,0.0,8.0,97,0.00,,,0.01,Wunderground v.1.15,2018-01-21 11:20:00,
2018-01-21 06:25:00,44.7,43.9,30.15,SW,234,4.0,5.0,97,0.00,,,0.01,Wunderground v.1.15,2018-01-21 11:25:00,
2018-01-21 06:30:00,44.8,43.7,30.15,SW,219,2.0,6.0,96,0.00,,,0.01,Wunderground v.1.15,2018-01-21 11:30:00,
2018-01-21 06:35:00,44.9,43.8,30.15,WNW,296,1.0,7.0,96,0.00,,,0.01,Wunderground v.1.15,2018-01-21 11:35:00,
2018-01-21 06:40:00,45.0,43.7,30.16,SSE,168,3.0,7.0,95,0.00,,,0.01,Wunderground v.1.15,2018-01-21 11:40:00,
2018-01-21 06:45:00,45.0,43.1,30.15,SSW,195,1.0,7.0,93,0.00,,,0.01,Wunderground v.1.15,2018-01-21 11:45:00,
2018-01-21 06:50:00,45.0,43.1,30.16,SSW,209,1.0,8.0,93,0.00,,,0.01,Wunderground v.1.15,2018-01-21 11:50:00,
2018-01-21 06:55:00,45.1,42.9,30.16,SW,234,7.0,12.0,92,0.00,,,0.01,Wunderground v.1.15,2018-01-21 11:55:00,
2018-01-21 07:00:00,45.1,42.6,30.16,West,271,2.0,12.0,91,0.00,,,0.01,Wunderground v.1.15,2018-01-21 12:00:00,
2018-01-21 07:05:00,44.9,42.4,30.16,SW,232,1.0,6.0,91,0.00,,,0.01,Wunderground v.1.15,2018-01-21 12:05:00,
2018-01-21 07:10:00,44.7,42.2,30.16,WSW,246,2.0,6.0,91,0.00,,,0.01,Wunderground v.1.15,2018-01-21 12:10:00,
2018-01-21 07:15:00,44.5,42.3,30.16,WSW,242,2.0,9.0,92,0.00,,,0.01,Wunderground v.1.15,2018-01-21 12:15:00,
2018-01-21 07:20:00,44.3,42.1,30.16,SW,215,1.0,4.0,92,0.00,,,0.01,Wunderground v.1.15,2018-01-21 12:20:00,
2018-01-21 07:25:00,44.2,42.3,30.17,WSW,248,1.0,7.0,93,0.00,,,0.01,Wunderground v.1.15,2018-01-21 12:25:00,
2018-01-21 07:30:00,44.0,42.1,30.17,South,184,1.0,2.0,93,0.00,,,0.01,Wunderground v.1.15,2018-01-21 12:30:00,
2018-01-21 07:35:00,44.1,42.2,30.16,SW,225,3.0,8.0,93,0.00,,,0.01,Wunderground v.1.15,2018-01-21 12:35:00,
2018-01-21 07:40:00,44.1,42.2,30.16,SSW,198,1.0,2.0,93,0.00,,,0.01,Wunderground v.1.15,2018-01-21 12:40:00,
2018-01-21 07:45:00,44.2,42.3,30.16,SW,219,3.0,12.0,93,0.00,,,0.01,Wunderground v.1.15,2018-01-21 12:45:00,
2018-01-21 07:50:00,44.3,42.4,30.16,WSW,238,3.0,6.0,93,0.00,,,0.01,Wunderground v.1.15,2018-01-21 12:50:00,
2018-01-21 07:55:00,44.3,42.4,30.17,SW,215,1.0,6.0,93,0.00,,,0.01,Wunderground v.1.15,2018-01-21 12:55:00,
2018-01-21 08:00:00,44.3,42.4,30.17,WSW,241,3.0,6.0,93,0.00,,,0.01,Wunderground v.1.15,2018-01-21 13:00:00,
2018-01-21 08:05:00,44.4,42.2,30.17,SW,217,2.0,7.0,92,0.00,,,0.01,Wunderground v.1.15,2018-01-21 13:05:00,
2018-01-21 08:10:00,44.5,42.3,30.17,SW,229,6.0,6.0,92,0.00,,,0.01,Wunderground v.1.15,2018-01-21 13:10:00,
2018-01-21 08:15:00,44.6,42.4,30.17,SSW,202,1.0,10.0,92,0.00,,,0.01,Wunderground v.1.15,2018-01-21 13:15:00,
2018-01-21 08:20:00,44.5,42.3,30.17,WSW,239,2.0,2.0,92,0.00,,,0.01,Wunderground v.1.15,2018-01-21 13:20:00,
2018-01-21 08:25:00,44.6,42.4,30.17,South,181,1.0,8.0,92,0.00,,,0.01,Wunderground v.1.15,2018-01-21 13:25:00,
2018-01-21 08:30:00,44.5,42.3,30.17,SW,216,1.0,3.0,92,0.00,,,0.01,Wunderground v.1.15,2018-01-21 13:30:00,
2018-01-21 08:35:00,44.5,42.3,30.17,WSW,245,6.0,7.0,92,0.00,,,0.01,Wunderground v.1.15,2018-01-21 13:35:00,
2018-01-21 08:40:00,44.5,42.3,30.17,SW,234,3.0,3.0,92,0.00,,,0.01,Wunderground v.1.15,2018-01-21 13:40:00,
2018-01-21 08:46:00,44.6,42.7,30.17,WSW,253,0.0,10.0,93,0.00,,,0.01,Wunderground v.1.15,2018-01-21 13:46:00,
2018-01-21 08:51:00,44.7,42.5,30.17,West,272,1.0,3.0,92,0.00,,,0.01,Wunderground v.1.15,2018-01-21 13:51:00,
2018-01-21 08:56:00,44.6,42.4,30.17,SSE,165,1.0,3.0,92,0.00,,,0.01,Wunderground v.1.15,2018-01-21 13:56:00,
2018-01-21 09:01:00,44.8,42.6,30.17,SSW,209,5.0,5.0,92,0.00,,,0.01,Wunderground v.1.15,2018-01-21 14:01:00,
2018-01-21 09:06:00,45.0,42.8,30.18,SSW,198,0.0,6.0,92,0.00,,,0.01,Wunderground v.1.15,2018-01-21 14:06:00,
2018-01-21 09:11:00,45.1,42.9,30.17,SSW,211,2.0,9.0,92,0.00,,,0.01,Wunderground v.1.15,2018-01-21 14:11:00,
2018-01-21 09:16:00,45.4,42.9,30.17,WSW,244,4.0,12.0,91,0.00,,,0.01,Wunderground v.1.15,2018-01-21 14:16:00,
2018-01-21 09:21:00,45.4,42.9,30.17,South,190,2.0,3.0,91,0.00,,,0.01,Wunderground v.1.15,2018-01-21 14:21:00,
2018-01-21 09:26:00,45.5,43.0,30.17,South,175,1.0,9.0,91,0.00,,,0.01,Wunderground v.1.15,2018-01-21 14:26:00,
2018-01-21 09:31:00,45.7,42.9,30.17,SW,215,3.0,8.0,90,0.00,,,0.01,Wunderground v.1.15,2018-01-21 14:31:00,
2018-01-21 09:36:00,45.9,42.8,30.17,SW,219,0.0,8.0,89,0.00,,,0.01,Wunderground v.1.15,2018-01-21 14:36:00,
2018-01-21 09:41:00,45.9,42.5,30.17,SW,220,1.0,2.0,88,0.00,,,0.01,Wunderground v.1.15,2018-01-21 14:41:00,
2018-01-21 09:46:00,45.9,42.5,30.18,WSW,240,0.0,2.0,88,0.00,,,0.01,Wunderground v.1.15,2018-01-21 14:46:00,
2018-01-21 09:51:00,45.9,42.5,30.18,SW,217,1.0,2.0,88,0.00,,,0.01,Wunderground v.1.15,2018-01-21 14:51:00,
2018-01-21 09:56:00,45.9,42.5,30.18,West,261,0.0,3.0,88,0.00,,,0.01,Wunderground v.1.15,2018-01-21 14:56:00,
2018-01-21 10:02:00,46.1,42.7,30.18,SSW,207,4.0,9.0,88,0.00,,,0.01,Wunderground v.1.15,2018-01-21 15:02:00,
2018-01-21 10:07:00,46.4,42.7,30.17,SW,227,1.0,9.0,87,0.00,,,0.01,Wunderground v.1.15,2018-01-21 15:07:00,
2018-01-21 10:12:00,46.6,42.6,30.17,WSW,242,4.0,6.0,86,0.00,,,0.01,Wunderground v.1.15,2018-01-21 15:12:00,
2018-01-21 10:17:00,47.0,43.3,30.17,SW,236,1.0,6.0,87,0.00,,,0.01,Wunderground v.1.15,2018-01-21 15:17:00,
2018-01-21 10:22:00,47.2,43.2,30.18,SSW,209,5.0,6.0,86,0.00,,,0.01,Wunderground v.1.15,2018-01-21 15:22:00,
2018-01-21 10:27:00,47.4,43.4,30.18,SW,216,0.0,6.0,86,0.00,,,0.01,Wunderground v.1.15,2018-01-21 15:27:00,
2018-01-21 10:32:00,47.4,43.4,30.18,SW,217,1.0,3.0,86,0.00,,,0.01,Wunderground v.1.15,2018-01-21 15:32:00,
2018-01-21 10:37:00,47.4,43.1,30.18,SSE,156,1.0,3.0,85,0.00,,,0.01,Wunderground v.1.15,2018-01-21 15:37:00,
2018-01-21 10:42:00,47.5,43.2,30.18,SW,226,1.0,5.0,85,0.00,,,0.01,Wunderground v.1.15,2018-01-21 15:42:00,
2018-01-21 10:47:00,47.6,43.0,30.18,SSW,207,0.0,6.0,84,0.00,,,0.01,Wunderground v.1.15,2018-01-21 15:47:00,
2018-01-21 10:52:00,47.7,43.1,30.18,WSW,248,2.0,3.0,84,0.00,,,0.01,Wunderground v.1.15,2018-01-21 15:52:00,
2018-01-21 10:57:00,47.8,43.2,30.17,SW,216,0.0,5.0,84,0.00,,,0.01,Wunderground v.1.15,2018-01-21 15:57:00,
2018-01-21 11:02:00,47.9,43.3,30.17,SW,215,0.0,3.0,84,0.00,,,0.01,Wunderground v.1.15,2018-01-21 16:02:00,
2018-01-21 11:07:00,47.9,43.3,30.17,SSW,212,0.0,3.0,84,0.00,,,0.01,Wunderground v.1.15,2018-01-21 16:07:00,
2018-01-21 11:12:00,47.9,43.3,30.17,WSW,251,4.0,7.0,84,0.00,,,0.01,Wunderground v.1.15,2018-01-21 16:12:00,
2018-01-21 11:17:00,48.1,43.5,30.17,SSW,207,3.0,7.0,84,0.00,,,0.01,Wunderground v.1.15,2018-01-21 16:17:00,
2018-01-21 11:22:00,48.2,43.3,30.17,SW,223,1.0,6.0,83,0.00,,,0.01,Wunderground v.1.15,2018-01-21 16:22:00,
2018-01-21 11:27:00,48.3,43.4,30.17,SW,235,3.0,6.0,83,0.00,,,0.01,Wunderground v.1.15,2018-01-21 16:27:00,
2018-01-21 11:32:00,48.4,43.2,30.17,West,273,4.0,9.0,82,0.00,,,0.01,Wunderground v.1.15,2018-01-21 16:32:00,
2018-01-21 11:38:00,48.5,43.3,30.16,SW,227,3.0,9.0,82,0.00,,,0.01,Wunderground v.1.15,2018-01-21 16:38:00,
2018-01-21 11:43:00,48.5,43.3,30.16,SSW,200,0.0,4.0,82,0.00,,,0.01,Wunderground v.1.15,2018-01-21 16:43:00,
2018-01-21 11:48:00,48.5,43.3,30.16,WSW,239,5.0,5.0,82,0.00,,,0.01,Wunderground v.1.15,2018-01-21 16:48:00,
2018-01-21 11:53:00,48.6,43.0,30.16,NNW,338,3.0,7.0,81,0.00,,,0.01,Wunderground v.1.15,2018-01-21 16:53:00,
2018-01-21 11:55:00,48.6,43.0,30.15,WSW,249,6.0,9.0,81,0.00,,,0.01,Wunderground v.1.15,2018-01-21 16:55:00,
2018-01-21 12:00:00,48.5,42.9,30.15,SSW,205,4.0,4.0,81,0.00,,,0.01,Wunderground v.1.15,2018-01-21 17:00:00,
2018-01-21 12:05:00,48.4,42.8,30.15,SSW,205,0.0,7.0,81,0.00,,,0.01,Wunderground v.1.15,2018-01-21 17:05:00,
2018-01-21 12:10:00,48.2,42.6,30.15,SSW,193,2.0,2.0,81,0.00,,,0.01,Wunderground v.1.15,2018-01-21 17:10:00,
2018-01-21 12:15:00,48.1,42.9,30.15,SW,221,2.0,5.0,82,0.00,,,0.01,Wunderground v.1.15,2018-01-21 17:15:00,
2018-01-21 12:20:00,48.1,42.9,30.14,SSW,207,3.0,4.0,82,0.00,,,0.01,Wunderground v.1.15,2018-01-21 17:20:00,
2018-01-21 12:25:00,47.8,42.9,30.14,WSW,238,3.0,4.0,83,0.00,,,0.01,Wunderground v.1.15,2018-01-21 17:25:00,
2018-01-21 12:30:00,47.5,43.2,30.14,SW,217,2.0,2.0,85,0.00,,,0.01,Wunderground v.1.15,2018-01-21 17:30:00,
2018-01-21 12:35:00,47.4,43.1,30.14,West,267,2.0,7.0,85,0.00,,,0.01,Wunderground v.1.15,2018-01-21 17:35:00,
2018-01-21 12:40:00,47.3,43.3,30.14,West,273,0.0,2.0,86,0.00,,,0.01,Wunderground v.1.15,2018-01-21 17:40:00,